Home   Weather   Golden   Past weeks
Flag for Canada

Past Weather in Golden, British Columbia, Canada — Yesterday and Last 2 Weeks

Now
53 °F

Cool.


Feels Like: 50 °F
Forecast: 67 / 47 °F
Wind: 7 mph from Southwest

Location: Yoho Park

Current Time: Jul 20, 2019 at 4:09:24 pm

Latest Report: Jul 20, 2019 at 3:00 pm


Visibility: N/A

Pressure: 30.20 "Hg (27.43 "Hg at 800m altitude)

Humidity: 79%

Dew Point: 46 °F

Location of GoldenLocation

Past Weather in Golden — Graph

°F

Golden Temperature Yesterday

Maximum temperature yesterday: 45 °F (at 12:00 pm)
Minimum temperature yesterday: 36 °F (at 6:00 am)
Average temperature yesterday: 42 °F

High & Low Weather Summary for the Past Weeks

 TemperatureHumidityPressure
High74 °F (Jul 13, 2:00 pm)100% (Jul 8, 12:00 am)30.26 "Hg (Jul 8, 12:00 am)
Low36 °F (Jul 19, 6:00 am)32% (Jul 13, 2:00 pm)29.63 "Hg (Jul 18, 5:00 am)
Average51 °F82%29.98 "Hg
* Reported Jul 5 2:00 pm — Jul 20 2:00 pm, Golden. Weather by CustomWeather, © 2019

Note: Actual official high and low records may vary slightly from our data, if they occured in-between our weather recording intervals... More about our weather records

Advertising

Golden Weather History for the Previous 24 Hours

Scroll right to see more
 ConditionsComfort  
Time TempWeatherWind HumidityBarometerVisibility
2:00 pm
Sat, Jul 20
52 °FCool.7 mph78%30.20 "HgN/A
1:00 pm52 °FCool.5 mph79%30.19 "HgN/A
12:00 pm49 °FCool.5 mph76%30.19 "HgN/A
11:00 am47 °FCool.7 mph84%30.18 "HgN/A
10:00 am46 °FCool.9 mph89%30.19 "HgN/A
9:00 am46 °FCool.6 mph90%30.17 "HgN/A
8:00 am42 °FQuite cool.No wind97%30.16 "HgN/A
7:00 am40 °FQuite cool.No wind98%30.16 "HgN/A
6:00 am39 °FChilly.1 mph98%30.17 "HgN/A
5:00 am40 °FChilly.2 mph97%30.16 "HgN/A
4:00 am40 °FQuite cool.No wind98%30.15 "HgN/A
3:00 am41 °FQuite cool.1 mph97%30.14 "HgN/A
2:00 am39 °FChilly.3 mph98%30.14 "HgN/A
1:00 am39 °FChilly.1 mph97%30.13 "HgN/A
12:00 am41 °FQuite cool.2 mph97%30.11 "HgN/A
11:00 pm
Fri, Jul 19
42 °FQuite cool.5 mph96%30.11 "HgN/A
10:00 pm42 °FQuite cool.7 mph96%30.10 "HgN/A
9:00 pm43 °FQuite cool.8 mph95%30.09 "HgN/A
8:00 pm44 °FQuite cool.10 mph94%30.07 "HgN/A
7:00 pm45 °FQuite cool.12 mph92%30.04 "HgN/A
6:00 pm44 °FQuite cool.13 mph93%30.04 "HgN/A
5:00 pm45 °FCool.13 mph93%30.02 "HgN/A
4:00 pm45 °FQuite cool.14 mph91%30.00 "HgN/A
Weather by CustomWeather, © 2019

See weather overview